SWR242E LSZH-LEPA

Flight info

Callsign SWR242E
Flight time 1h 28m
Altitude 41000
Route VEBIT T50 ROTOS Z669 ULMES DCT VADAR DCT GEVEA DCT INCUS DCT BALSI DCT RETNO DCT TUPOX DCT MTG DCT DIVKO DCT VATIR DCT PIVUS DCT BODEQ DCT VERSO L129 LUNIK
Aircraft A359/H-SDE2E3GHIJ3J4J5LM1ORWXY/LB1D1

Departure

Time 2026-05-07 11:45
Airport Zürich Airport (LSZH)

Arrival

Time 2026-05-07 13:13
Airport Palma de Mallorca Airport (LEPA)
Time Latitude Longitude Altitude Speed Heading
2026-05-07 11:18 47.46058 8.55433 1404 ft 0 kts
2026-05-07 11:36 47.46041 8.55430 1404 ft 4 kts
2026-05-07 11:36 47.46014 8.55425 1409 ft 4 kts 11°
2026-05-07 11:36 47.45991 8.55418 1414 ft 4 kts 22°
2026-05-07 11:36 47.45972 8.55397 1404 ft 4 kts 72°
2026-05-07 11:37 47.45972 8.55360 1411 ft 4 kts 105°
2026-05-07 11:37 47.45977 8.55331 1408 ft 0 kts 96°
2026-05-07 11:40 47.45977 8.55333 1403 ft 2 kts 96°
2026-05-07 11:40 47.45973 8.55392 1407 ft 10 kts 96°
2026-05-07 11:41 47.45964 8.55516 1413 ft 13 kts 97°
2026-05-07 11:41 47.45954 8.55650 1410 ft 13 kts 96°
2026-05-07 11:41 47.45944 8.55792 1416 ft 14 kts 96°
2026-05-07 11:41 47.45934 8.55938 1418 ft 13 kts 96°
2026-05-07 11:42 47.45924 8.56072 1415 ft 13 kts 96°
2026-05-07 11:42 47.45915 8.56206 1417 ft 13 kts 96°
2026-05-07 11:42 47.45906 8.56334 1427 ft 13 kts 96°
2026-05-07 11:42 47.45875 8.56446 1427 ft 11 kts 129°
2026-05-07 11:43 47.45816 8.56525 1425 ft 12 kts 135°
2026-05-07 11:43 47.45794 8.56648 1425 ft 13 kts 96°
2026-05-07 11:43 47.45784 8.56790 1427 ft 14 kts 95°
2026-05-07 11:43 47.45775 8.56928 1429 ft 13 kts 96°
2026-05-07 11:44 47.45731 8.57024 1431 ft 11 kts 155°
2026-05-07 11:44 47.45674 8.57017 1431 ft 6 kts 221°
2026-05-07 11:44 47.45667 8.56947 1430 ft 9 kts 274°
2026-05-07 11:44 47.45669 8.56915 1430 ft 0 kts 276°
2026-05-07 11:45 47.45672 8.56876 1429 ft 24 kts 276°
2026-05-07 11:45 47.45726 8.56119 1418 ft 122 kts 276°
2026-05-07 11:45 47.45851 8.54480 1611 ft 187 kts 277°
2026-05-07 11:45 47.45996 8.52405 2440 ft 217 kts 276°
2026-05-07 11:46 47.46148 8.50065 3319 ft 235 kts 274°
2026-05-07 11:46 47.45829 8.47665 3981 ft 247 kts 241°
2026-05-07 11:46 47.44751 8.45650 4835 ft 255 kts 229°
2026-05-07 11:46 47.43601 8.43632 5761 ft 257 kts 233°
2026-05-07 11:47 47.42504 8.41533 6739 ft 259 kts 234°
2026-05-07 11:47 47.41423 8.39423 7702 ft 262 kts 234°
2026-05-07 11:47 47.40322 8.37261 8750 ft 265 kts 234°
2026-05-07 11:47 47.39224 8.35060 9848 ft 268 kts 236°
2026-05-07 11:48 47.38259 8.32659 10653 ft 280 kts 242°
2026-05-07 11:48 47.37309 8.30012 11066 ft 302 kts 243°
2026-05-07 11:48 47.36305 8.27162 11451 ft 324 kts 242°
2026-05-07 11:48 47.35240 8.24151 12021 ft 337 kts 242°
2026-05-07 11:49 47.34144 8.21050 12781 ft 344 kts 242°
2026-05-07 11:49 47.33023 8.17896 13621 ft 350 kts 242°
2026-05-07 11:49 47.31884 8.14697 14376 ft 355 kts 242°
2026-05-07 11:49 47.30732 8.11453 15090 ft 360 kts 243°
2026-05-07 11:50 47.29562 8.08160 15799 ft 365 kts 243°
2026-05-07 11:50 47.28375 8.04829 16523 ft 369 kts 243°
2026-05-07 11:50 47.27181 8.01449 17240 ft 374 kts 244°
2026-05-07 11:50 47.26086 7.98010 18007 ft 378 kts 246°
2026-05-07 11:51 47.25045 7.94424 18716 ft 383 kts 248°
2026-05-07 11:51 47.24035 7.90774 19421 ft 386 kts 249°
2026-05-07 11:51 47.23030 7.87090 20154 ft 389 kts 249°
2026-05-07 11:51 47.22014 7.83372 20891 ft 392 kts 249°
2026-05-07 11:52 47.20983 7.79633 21638 ft 396 kts 248°
2026-05-07 11:52 47.19925 7.75866 22356 ft 400 kts 247°
2026-05-07 11:52 47.18613 7.72249 23055 ft 404 kts 238°
2026-05-07 11:52 47.17007 7.68834 23731 ft 408 kts 235°
2026-05-07 11:53 47.15314 7.65524 24298 ft 412 kts 233°
2026-05-07 11:53 47.13528 7.62190 24843 ft 417 kts 232°
2026-05-07 11:53 47.11702 7.58853 25385 ft 421 kts 232°
2026-05-07 11:53 47.09854 7.55496 25972 ft 424 kts 232°
2026-05-07 11:54 47.07991 7.52105 26522 ft 428 kts 232°
2026-05-07 11:54 47.06116 7.48678 27063 ft 432 kts 232°
2026-05-07 11:54 47.04228 7.45217 27569 ft 436 kts 232°
2026-05-07 11:54 47.02332 7.41734 28148 ft 439 kts 232°
2026-05-07 11:55 47.00420 7.38223 28623 ft 443 kts 232°
2026-05-07 11:55 46.98488 7.34692 29167 ft 446 kts 232°
2026-05-07 11:55 46.96564 7.31186 29703 ft 449 kts 232°
2026-05-07 11:55 46.94599 7.27608 30155 ft 452 kts 232°
2026-05-07 11:56 46.92628 7.24015 30637 ft 453 kts 232°
2026-05-07 11:56 46.90653 7.20415 31092 ft 455 kts 232°
2026-05-07 11:56 46.88662 7.16791 31491 ft 457 kts 233°
2026-05-07 11:56 46.86665 7.13159 31879 ft 460 kts 233°
2026-05-07 11:57 46.84656 7.09509 32266 ft 462 kts 233°
2026-05-07 11:57 46.82633 7.05841 32658 ft 464 kts 233°
2026-05-07 11:57 46.80602 7.02162 33005 ft 466 kts 233°
2026-05-07 11:57 46.78563 6.98473 33364 ft 468 kts 233°
2026-05-07 11:58 46.76522 6.94787 33850 ft 466 kts 233°
2026-05-07 11:58 46.74492 6.91128 34349 ft 462 kts 233°
2026-05-07 11:58 46.72473 6.87494 34833 ft 459 kts 233°
2026-05-07 11:58 46.70489 6.83926 35156 ft 460 kts 233°
2026-05-07 11:59 46.68471 6.80300 35421 ft 461 kts 233°
2026-05-07 11:59 46.66454 6.76679 35696 ft 461 kts 233°
2026-05-07 11:59 46.64414 6.73065 35995 ft 462 kts 231°
2026-05-07 11:59 46.62264 6.69576 36302 ft 463 kts 229°
2026-05-07 12:00 46.60042 6.66175 36617 ft 463 kts 228°
2026-05-07 12:00 46.57793 6.62802 36924 ft 463 kts 228°
2026-05-07 12:00 46.55555 6.59440 37218 ft 463 kts 228°
2026-05-07 12:00 46.53328 6.56069 37531 ft 463 kts 228°
2026-05-07 12:01 46.51114 6.52688 37794 ft 463 kts 228°
2026-05-07 12:01 46.48902 6.49290 38049 ft 463 kts 229°
2026-05-07 12:01 46.46690 6.45881 38331 ft 463 kts 229°
2026-05-07 12:01 46.44513 6.42523 38595 ft 463 kts 228°
2026-05-07 12:02 46.42307 6.39124 38796 ft 463 kts 228°
2026-05-07 12:02 46.40101 6.35730 38996 ft 463 kts 228°
2026-05-07 12:02 46.37893 6.32338 39178 ft 463 kts 228°
2026-05-07 12:02 46.35684 6.28950 39400 ft 462 kts 228°
2026-05-07 12:03 46.33478 6.25571 39589 ft 462 kts 228°
2026-05-07 12:03 46.31270 6.22195 39772 ft 462 kts 228°
2026-05-07 12:03 46.28948 6.18957 39924 ft 463 kts 222°
2026-05-07 12:03 46.26361 6.16152 40073 ft 465 kts 214°
2026-05-07 12:04 46.23514 6.13901 40239 ft 468 kts 206°
2026-05-07 12:04 46.20439 6.12292 40383 ft 472 kts 198°
2026-05-07 12:04 46.17218 6.11284 40554 ft 474 kts 193°
2026-05-07 12:04 46.13971 6.10494 40716 ft 474 kts 192°
2026-05-07 12:05 46.10744 6.09799 40876 ft 475 kts 191°
2026-05-07 12:05 46.07474 6.09125 41006 ft 475 kts 191°
2026-05-07 12:05 46.04196 6.08449 41024 ft 475 kts 191°
2026-05-07 12:06 45.97655 6.07061 41016 ft 475 kts 192°
2026-05-07 12:06 45.91127 6.05632 41022 ft 474 kts 192°
2026-05-07 12:07 45.84606 6.04192 41020 ft 474 kts 192°
2026-05-07 12:07 45.78081 6.02744 41013 ft 474 kts 192°
2026-05-07 12:08 45.71609 6.01316 41012 ft 473 kts 192°
2026-05-07 12:08 45.65091 5.99881 40993 ft 473 kts 192°
2026-05-07 12:09 45.59637 5.98683 40990 ft 473 kts 192°
2026-05-07 12:09 45.53179 5.97269 40991 ft 472 kts 192°
2026-05-07 12:10 45.46672 5.95845 40993 ft 472 kts 192°
2026-05-07 12:10 45.40254 5.93986 40986 ft 470 kts 196°
2026-05-07 12:11 45.33894 5.91858 40993 ft 469 kts 197°
2026-05-07 12:11 45.27525 5.89783 40983 ft 468 kts 196°
2026-05-07 12:12 45.21202 5.87793 40991 ft 469 kts 196°
2026-05-07 12:12 45.14832 5.85820 40976 ft 468 kts 196°
2026-05-07 12:13 45.08458 5.83854 40989 ft 468 kts 196°
2026-05-07 12:13 45.02096 5.81892 40976 ft 468 kts 195°
2026-05-07 12:14 44.95775 5.79946 40972 ft 467 kts 196°
2026-05-07 12:14 44.89439 5.77999 40967 ft 466 kts 196°
2026-05-07 12:15 44.83089 5.76052 40953 ft 466 kts 196°
2026-05-07 12:15 44.76745 5.74112 40962 ft 465 kts 196°
2026-05-07 12:16 44.70414 5.72181 40966 ft 465 kts 196°
2026-05-07 12:16 44.64090 5.70253 40966 ft 465 kts 195°
2026-05-07 12:17 44.57796 5.68339 40958 ft 468 kts 195°
2026-05-07 12:17 44.51388 5.66393 40958 ft 474 kts 195°
2026-05-07 12:18 44.44907 5.64432 40948 ft 477 kts 195°
2026-05-07 12:18 44.38445 5.62356 40961 ft 474 kts 200°
2026-05-07 12:19 44.32263 5.59252 40963 ft 472 kts 204°
2026-05-07 12:19 44.26143 5.55907 40957 ft 471 kts 204°
2026-05-07 12:20 44.20046 5.52540 40962 ft 470 kts 204°
2026-05-07 12:20 44.13995 5.49223 40958 ft 471 kts 204°
2026-05-07 12:21 44.07897 5.45902 40966 ft 470 kts 204°
2026-05-07 12:21 44.01803 5.42595 40966 ft 470 kts 204°
2026-05-07 12:22 43.95711 5.39294 40965 ft 470 kts 204°
2026-05-07 12:22 43.89622 5.35997 40952 ft 469 kts 204°
2026-05-07 12:23 43.83549 5.32720 40973 ft 469 kts 204°
2026-05-07 12:23 43.77470 5.29445 40963 ft 469 kts 204°
2026-05-07 12:24 43.71383 5.26173 40964 ft 469 kts 204°
2026-05-07 12:24 43.65341 5.22933 40965 ft 468 kts 204°
2026-05-07 12:25 43.59267 5.19682 40986 ft 468 kts 204°
2026-05-07 12:25 43.53197 5.16440 40993 ft 468 kts 204°
2026-05-07 12:26 43.47152 5.13217 40994 ft 467 kts 204°
2026-05-07 12:26 43.41093 5.09973 40991 ft 466 kts 206°
2026-05-07 12:27 43.35456 5.05686 40991 ft 462 kts 215°
2026-05-07 12:27 43.30113 5.00752 40987 ft 462 kts 217°
2026-05-07 12:28 43.24839 4.95740 40990 ft 461 kts 217°
2026-05-07 12:28 43.19557 4.90741 40993 ft 461 kts 216°
2026-05-07 12:29 43.14291 4.85796 40998 ft 461 kts 216°
2026-05-07 12:29 43.08990 4.80843 41000 ft 460 kts 216°
2026-05-07 12:30 43.03565 4.76165 41001 ft 461 kts 212°
2026-05-07 12:30 42.97986 4.71866 41007 ft 461 kts 211°
2026-05-07 12:31 42.92373 4.67627 41001 ft 461 kts 211°
2026-05-07 12:31 42.86764 4.63404 41007 ft 460 kts 211°
2026-05-07 12:32 42.81154 4.59178 41007 ft 460 kts 211°
2026-05-07 12:32 42.75552 4.54960 41007 ft 460 kts 211°
2026-05-07 12:33 42.67176 4.48670 41005 ft 460 kts 211°
2026-05-07 12:33 42.61560 4.44463 41007 ft 460 kts 211°
2026-05-07 12:34 42.55948 4.40269 41009 ft 460 kts 211°
2026-05-07 12:34 42.50336 4.36083 41007 ft 460 kts 211°
2026-05-07 12:35 42.44731 4.31913 41012 ft 459 kts 211°
2026-05-07 12:35 42.39124 4.27747 41012 ft 459 kts 211°
2026-05-07 12:36 42.33564 4.23626 41012 ft 459 kts 211°
2026-05-07 12:36 42.27964 4.19483 41013 ft 458 kts 211°
2026-05-07 12:37 42.22371 4.15354 41012 ft 458 kts 211°
2026-05-07 12:37 42.16776 4.11232 41009 ft 458 kts 211°
2026-05-07 12:38 42.11171 4.07117 40998 ft 458 kts 211°
2026-05-07 12:38 42.05617 4.03040 41007 ft 457 kts 211°
2026-05-07 12:39 42.00028 3.98946 41007 ft 457 kts 211°
2026-05-07 12:39 41.94407 3.94960 41007 ft 458 kts 206°
2026-05-07 12:40 41.88867 3.92587 41015 ft 463 kts 195°
2026-05-07 12:40 41.82562 3.90988 41013 ft 464 kts 193°
2026-05-07 12:41 41.76176 3.89563 41006 ft 465 kts 193°
2026-05-07 12:41 41.69790 3.88138 41008 ft 464 kts 193°
2026-05-07 12:42 41.63423 3.86690 40997 ft 464 kts 193°
2026-05-07 12:42 41.57054 3.85230 41006 ft 464 kts 193°
2026-05-07 12:43 41.50691 3.83767 41003 ft 464 kts 193°
2026-05-07 12:43 41.44367 3.82317 41009 ft 463 kts 193°
2026-05-07 12:44 41.38015 3.80865 41003 ft 462 kts 193°
2026-05-07 12:44 41.31670 3.79418 41004 ft 463 kts 193°
2026-05-07 12:45 41.25313 3.77970 40997 ft 463 kts 193°
2026-05-07 12:45 41.19006 3.76538 41000 ft 462 kts 193°
2026-05-07 12:46 41.12833 3.74348 40999 ft 457 kts 203°
2026-05-07 12:46 41.06882 3.71339 40752 ft 456 kts 204°
2026-05-07 12:47 41.03922 3.69822 40499 ft 456 kts 204°
2026-05-07 12:47 41.00964 3.68304 40271 ft 455 kts 204°
2026-05-07 12:47 40.98017 3.66790 40044 ft 454 kts 204°
2026-05-07 12:47 40.95070 3.65277 39806 ft 454 kts 204°
2026-05-07 12:48 40.92128 3.63768 39570 ft 453 kts 204°
2026-05-07 12:48 40.89187 3.62261 39341 ft 450 kts 204°
2026-05-07 12:48 40.86325 3.60796 39107 ft 443 kts 204°
2026-05-07 12:48 40.83462 3.59332 38877 ft 440 kts 204°
2026-05-07 12:49 40.80615 3.57876 38644 ft 438 kts 204°
2026-05-07 12:49 40.77779 3.56427 38296 ft 435 kts 204°
2026-05-07 12:49 40.74965 3.54991 37697 ft 431 kts 204°
2026-05-07 12:49 40.72179 3.53570 37060 ft 428 kts 204°
2026-05-07 12:50 40.69406 3.52158 36412 ft 426 kts 204°
2026-05-07 12:50 40.66646 3.50752 35732 ft 424 kts 204°
2026-05-07 12:50 40.63896 3.49354 35063 ft 422 kts 205°
2026-05-07 12:50 40.61162 3.47964 34331 ft 421 kts 205°
2026-05-07 12:51 40.58428 3.46576 33542 ft 420 kts 205°
2026-05-07 12:51 40.55705 3.45194 32664 ft 420 kts 205°
2026-05-07 12:51 40.52981 3.43813 31853 ft 419 kts 205°
2026-05-07 12:51 40.50256 3.42433 31040 ft 419 kts 205°
2026-05-07 12:52 40.47529 3.41056 30182 ft 421 kts 205°
2026-05-07 12:52 40.44760 3.39922 29423 ft 423 kts 197°
2026-05-07 12:52 40.41836 3.39428 28807 ft 425 kts 187°
2026-05-07 12:52 40.38879 3.39486 28203 ft 423 kts 183°
2026-05-07 12:53 40.35945 3.39665 27588 ft 420 kts 182°
2026-05-07 12:53 40.33034 3.39848 26972 ft 416 kts 183°
2026-05-07 12:53 40.30152 3.40023 26364 ft 413 kts 183°
2026-05-07 12:53 40.27279 3.40193 25764 ft 411 kts 183°
2026-05-07 12:54 40.24468 3.40356 25169 ft 408 kts 182°
2026-05-07 12:54 40.21629 3.40518 24569 ft 407 kts 182°
2026-05-07 12:54 40.18808 3.40678 23965 ft 405 kts 182°
2026-05-07 12:54 40.15991 3.40838 23337 ft 404 kts 182°
2026-05-07 12:55 40.13185 3.40997 22693 ft 402 kts 182°
2026-05-07 12:55 40.10405 3.41155 22103 ft 398 kts 181°
2026-05-07 12:55 40.07644 3.41314 21508 ft 395 kts 181°
2026-05-07 12:55 40.04936 3.41466 20920 ft 393 kts 181°
2026-05-07 12:56 40.02211 3.41618 20321 ft 390 kts 180°
2026-05-07 12:56 39.99510 3.41769 19728 ft 387 kts 180°
2026-05-07 12:56 39.96819 3.41920 19118 ft 384 kts 179°
2026-05-07 12:56 39.94153 3.42070 18530 ft 382 kts 179°
2026-05-07 12:57 39.92398 3.42168 18109 ft 381 kts 179°
2026-05-07 12:57 39.89755 3.42317 17465 ft 378 kts 179°
2026-05-07 12:57 39.87141 3.42464 16857 ft 374 kts 179°
2026-05-07 12:57 39.84556 3.42609 16250 ft 371 kts 179°
2026-05-07 12:58 39.81984 3.42753 15652 ft 367 kts 178°
2026-05-07 12:58 39.79443 3.42895 15048 ft 364 kts 178°
2026-05-07 12:58 39.76915 3.43037 14447 ft 362 kts 178°
2026-05-07 12:58 39.74407 3.43115 13848 ft 359 kts 182°
2026-05-07 12:59 39.71955 3.42564 13196 ft 357 kts 198°
2026-05-07 12:59 39.69781 3.41061 12757 ft 351 kts 216°
2026-05-07 12:59 39.68137 3.38866 12612 ft 338 kts 232°
2026-05-07 12:59 39.66972 3.36277 12482 ft 325 kts 240°
2026-05-07 13:00 39.65987 3.33705 12342 ft 311 kts 241°
2026-05-07 13:00 39.65048 3.31226 12218 ft 299 kts 242°
2026-05-07 13:00 39.64146 3.28858 12058 ft 286 kts 240°
2026-05-07 13:00 39.63277 3.26591 11942 ft 276 kts 240°
2026-05-07 13:01 39.62424 3.24377 11730 ft 274 kts 240°
2026-05-07 13:01 39.61573 3.22172 11456 ft 273 kts 241°
2026-05-07 13:01 39.60720 3.19968 11124 ft 273 kts 241°
2026-05-07 13:01 39.59868 3.17768 10794 ft 273 kts 241°
2026-05-07 13:02 39.59028 3.15598 10481 ft 272 kts 241°
2026-05-07 13:02 39.58177 3.13405 10149 ft 272 kts 240°
2026-05-07 13:02 39.57327 3.11214 9817 ft 275 kts 240°
2026-05-07 13:02 39.56473 3.09017 9627 ft 268 kts 241°
2026-05-07 13:03 39.55644 3.06880 9329 ft 264 kts 242°
2026-05-07 13:03 39.54822 3.04763 8977 ft 262 kts 241°
2026-05-07 13:03 39.54003 3.02660 8578 ft 261 kts 241°
2026-05-07 13:03 39.53188 3.00567 8263 ft 259 kts 241°
2026-05-07 13:04 39.52379 2.98489 7953 ft 257 kts 241°
2026-05-07 13:04 39.51579 2.96437 7656 ft 254 kts 242°
2026-05-07 13:04 39.50795 2.94427 7356 ft 252 kts 241°
2026-05-07 13:04 39.50004 2.92401 7055 ft 251 kts 242°
2026-05-07 13:05 39.49218 2.90389 6743 ft 249 kts 242°
2026-05-07 13:05 39.48433 2.88381 6455 ft 250 kts 242°
2026-05-07 13:05 39.47650 2.86376 6135 ft 250 kts 241°
2026-05-07 13:05 39.46864 2.84369 5853 ft 250 kts 241°
2026-05-07 13:06 39.46078 2.82363 5556 ft 249 kts 241°
2026-05-07 13:06 39.45294 2.80362 5260 ft 249 kts 241°
2026-05-07 13:06 39.44525 2.78400 4969 ft 247 kts 242°
2026-05-07 13:06 39.43777 2.76394 4659 ft 250 kts 246°
2026-05-07 13:07 39.43344 2.74214 4381 ft 251 kts 260°
2026-05-07 13:07 39.43113 2.71983 4102 ft 251 kts 262°
2026-05-07 13:07 39.42904 2.69726 3936 ft 253 kts 262°
2026-05-07 13:07 39.42692 2.67463 3814 ft 252 kts 262°
2026-05-07 13:08 39.42479 2.65233 3683 ft 248 kts 263°
2026-05-07 13:08 39.42266 2.63023 3469 ft 246 kts 262°
2026-05-07 13:08 39.42113 2.60830 3209 ft 245 kts 271°
2026-05-07 13:08 39.42527 2.58726 2946 ft 242 kts 302°
2026-05-07 13:09 39.43662 2.57185 2753 ft 234 kts 328°
2026-05-07 13:09 39.45027 2.56091 2634 ft 233 kts 340°
2026-05-07 13:09 39.46563 2.55966 2563 ft 214 kts 21°
2026-05-07 13:09 39.47756 2.56934 2493 ft 195 kts 43°
2026-05-07 13:10 39.48636 2.58170 2374 ft 182 kts 58°
2026-05-07 13:10 39.49271 2.59583 2089 ft 181 kts 60°
2026-05-07 13:10 39.49935 2.60931 1828 ft 171 kts 59°
2026-05-07 13:10 39.50526 2.62195 1611 ft 157 kts 60°
2026-05-07 13:11 39.51076 2.63355 1388 ft 146 kts 60°
2026-05-07 13:11 39.51579 2.64422 1177 ft 136 kts 61°
2026-05-07 13:11 39.52060 2.65438 956 ft 129 kts 59°
2026-05-07 13:11 39.52520 2.66408 765 ft 124 kts 59°
2026-05-07 13:12 39.52964 2.67355 600 ft 122 kts 60°
2026-05-07 13:12 39.53412 2.68294 501 ft 122 kts 57°
2026-05-07 13:12 39.53852 2.69250 369 ft 124 kts 59°
2026-05-07 13:12 39.54307 2.70181 226 ft 122 kts 60°
2026-05-07 13:13 39.54751 2.71145 65 ft 128 kts 60°
2026-05-07 13:13 39.55185 2.72059 45 ft 103 kts 58°
2026-05-07 13:13 39.55482 2.72689 44 ft 58 kts 58°
2026-05-07 13:13 39.55623 2.72986 44 ft 29 kts 59°
2026-05-07 13:14 39.55702 2.73168 44 ft 20 kts 69°
2026-05-07 13:14 39.55718 2.73350 44 ft 18 kts 88°
2026-05-07 13:14 39.55720 2.73486 44 ft 12 kts 92°
2026-05-07 13:14 39.55674 2.73516 44 ft 8 kts 199°
2026-05-07 13:15 39.55612 2.73513 44 ft 8 kts 160°
2026-05-07 13:15 39.55569 2.73544 44 ft 9 kts 146°
2026-05-07 13:15 39.55500 2.73596 44 ft 14 kts 149°
2026-05-07 13:15 39.55423 2.73656 42 ft 13 kts 149°
2026-05-07 13:16 39.55336 2.73724 44 ft 13 kts 148°
2026-05-07 13:16 39.55265 2.73780 44 ft 9 kts 148°
2026-05-07 13:16 39.55214 2.73817 44 ft 8 kts 163°
2026-05-07 13:16 39.55155 2.73784 44 ft 11 kts 199°
2026-05-07 13:17 39.55099 2.73801 44 ft 7 kts 144°
2026-05-07 13:17 39.55054 2.73838 44 ft 7 kts 148°
2026-05-07 13:17 39.55018 2.73866 44 ft 6 kts 157°
2026-05-07 13:17 39.54983 2.73846 44 ft 7 kts 229°
2026-05-07 13:18 39.54960 2.73799 44 ft 3 kts 239°
2026-05-07 13:18 39.54954 2.73786 44 ft 1 kts 239°
2026-05-07 13:18 39.54951 2.73779 44 ft 2 kts 239°
2026-05-07 13:18 39.54950 2.73778 44 ft 0 kts 239°